STARLINK-1540, 46051

Orbit data source: Space-Track

STARLINK-1540, 46051 is a payload satellite owned by SpaceX/Seattle (US) in LEO that was launched on Fri, 07 Aug 2020 UTC via an FALCON 9 launch vehicle from the Air Force Eastern Test Range (AFETR). Payloads include a variety of satellites, spacecraft, and rockets equipped with specific instruments for various scientific and technological missions. These include communications satellites like Starlink; space stations such as the ISS; scientific satellites like the Hubble; Earth observation satellites from companies like Planet Labs, Umbra, and HawkEye 360; GPS; miniature CubeSats for education and research; and military/defense satellites.

Loading next visibility...
STARLINK-1540 details
Identifier
46051, 2020-055AA
Orbit
LEO
Last TLE update9 hours ago
Origin
Flag of USSpaceX/Seattle (US)
ManufacturerSpaceX/Seattle
MissionOperational Commercial Communications
Bus & MotorSTARLINK, Unknown motor
Mass260 kg wet, ~248 kg dry
Launch date (UTC)
2020-08-07 (4 years ago)
Launch vehicle
FALCON 9
Launch site
Air Force Eastern Test Range (AFETR)
Object type
Payload
Rocket body
Debris
Shape & HBRBox + 1 Pan, 8.86 m
Radar Cross Section13.562 m², Large (>1 m²)

Expand to show TLE details & history

TLE from 9 hours ago
0 STARLINK-1540
1 46051U 20055AA  24361.08094161  .00008683  00000-0  60130-3 0  9991
2 46051  53.0549 285.6119 0001866  67.8611 292.2576 15.06386531242410
Epoch: 2024-12-26T01:56Z
Definitive object data (Epoch: 2024-12-26T01:56:33.355Z)
Latitude
Longitude161.40746°
Altitude547.643 km
Speed7.59 km/s
True Right ascension19h 02m 26s
True Declination0° 00' 00"
Sunlit
Object was in daylight at TLE epoch
Visualization TLE readout
Latitude42.16908°
Longitude-62.82849°
Altitude550.528 km
Speed7.592 km/s
Apparent Right ascension01h 02m 47s
Apparent Declination4° 40' 29"
Sunlit
Object is in full shadow
Visualization observer readout
Local Sidereal Time09:48:04
Azimuth302.928° NW
Elevation-26.9°
Doppler factor1
Orbital elements
Apogee altitude548.816 km
Perigee altitude546.231 km
Semi-major axis6,925.66 km
Eccentricity0.0001866
Inclination53.0549°
RAAN285.6119°
Arg. of periapsis67.8611°
True anomaly292.23781°
Mean anomaly292.2576°
Eccentric anomaly292.2477°
Mean motion3.76575 °/min
BSTAR0.0006013
Orbital period95.6 mins
Loading maneuver chart data...
Loading historical data...
Loading historical data...
Loading historical data...
Loading historical data...
Loading historical data...
Loading historical data...
Loading historical data...

STARLINK-1540 Visibility forecast

Observer location: undefined°, undefined

Span
Click to sort rows by Start time (UTC) header in descending order
Start Az.
Max El. time (UTC)
Max El. Az.
Max El.
End time (UTC)
End Az.
7 mins2024-12-26 21:11:53.156Z198.673° SSW2024-12-26 21:15:53.156Z119.179° SE30.054°2024-12-26 21:18:53.156Z67.803° E
5 mins2024-12-26 22:52:53.156Z276.707° WNW2024-12-26 22:54:53.156Z324.743° NNW29.875°2024-12-26 22:57:53.156Z30.253° NE
5 mins2024-12-27 03:54:53.156Z337.319° NNW2024-12-27 03:56:53.156Z33.642° NE32.868°2024-12-27 03:59:53.156Z98.185° ESE
5 mins2024-12-27 05:33:53.156Z279.698° WNW2024-12-27 05:35:53.156Z240.058° WSW26.21°2024-12-27 05:38:53.156Z175.584° S
|